345  
ASUS41 KGYX 042210  
RWRGYX  
WEATHER ROUNDUP FOR MAINE AND NEW HAMPSHIRE  
NATIONAL WEATHER SERVICE GRAY ME  
500 PM EST SUN DEC 04 2022  
 
MEZ002-005-006-010-012-015-018-020-021-024-026-027-029-042300-  
MAINE  
 
CITY SKY/WX TMP DP RH WIND PRES REMARKS
 
PORTLAND CLOUDY 34 15 46 W8 30.15R  
SANFORD CLOUDY 33 14 45 NW8 30.16R  
BAR HARBOR CLOUDY 31 15 52 NW5 30.12R  
WISCASSET NOT AVBL  
ROCKLAND CLOUDY 33 14 45 N5 30.12R  
FRYEBURG MOCLDY 31 10 41 W3 30.14R  
LEWISTONAUBURN CLOUDY 32 13 45 W5 30.14R  
AUGUSTA CLOUDY 31 11 43 NW5 30.11R  
WATERVILLE CLOUDY 29 16 58 CALM 30.08R  
BANGOR MOCLDY 30 10 43 NW9 30.10S  
GREENVILLE N/A 22 10 60 VRB7 29.99F  
MILLINOCKET MOCLDY 26 14 60 NW7 30.09F  
HOULTON PTCLDY 26 12 55 W6 30.07R  
PRESQUE ISLE CLEAR 25 16 68 W8 30.09R  
FRENCHVILLE CLOUDY 23 12 62 W8 30.02R  
CARIBOU CLEAR 25 11 55 W7 30.05R  

 
 
NHZ002-005-008-009-011-012-014-042300-  
NEW HAMPSHIRE  
 
CITY SKY/WX TMP DP RH WIND PRES REMARKS
 
PORTSMOUTH CLOUDY 34 17 49 NW6 30.16R  
ROCHESTER CLOUDY 35 14 42 W7 30.15R  
NASHUA CLOUDY 35 20 54 CALM 30.16R  
MANCHESTER CLOUDY 36 18 48 N5 30.14R  
CONCORD CLOUDY 33 16 49 N9 30.15R  
LACONIA MOCLDY 32 17 54 CALM 30.14R  
BERLIN MOCLDY 25 12 58 S3 30.06R  
WHITEFIELD PTCLDY 25 14 63 CALM 30.07R  
JAFFREY MOCLDY 34 20 56 CALM 30.11S  
KEENE MOCLDY 32 22 66 S3 N/A  
LEBANON PTCLDY 31 20 63 S3 30.11R  
MT WASHINGTON FOG 3 3 100 W37 N/A VSB 1/16WCI -24  

 
 
VTZ005-007-008-042300-  
VERMONT  
 
CITY SKY/WX TMP DP RH WIND PRES REMARKS
 
ST JOHNSBURY N/A 30 14 51 MISG 30.07S  
MONTPELIER CLEAR 27 15 61 S5 30.10S  
BURLINGTON PTCLDY 31 18 58 S7 30.08F  

 
 
MAZ007-012-024-CTZ003-RIZ002-NYZ038-NYZ072-042300-  
SOUTHERN NEW ENGLAND AND NY  
 
CITY SKY/WX TMP DP RH WIND PRES REMARKS
 
BOSTON CLOUDY 40 17 39 NW6 30.18R  
WORCESTER CLOUDY 35 18 49 W6 30.13R  
NANTUCKET CLOUDY 40 27 59 NW6 30.15R  
PROVIDENCE CLOUDY 39 21 48 W5 30.18R  
HARTFORD CLOUDY 37 19 48 NW3 30.18R  
ALBANY PTCLDY 34 20 56 SE3 30.15R  
NEW YORK CITY MOCLDY 44 19 36 N5 30.18R  

 
 
ANZ081-ANZ082-ANZ150-NHZ014-MEZ023>029-042300-  
COASTAL MARINE OBSERVATIONS  
 
STATION/POSITION TIME TEMP WIND PRES WAVE
 
AIR SEA DIR/SP/G HT/PER  
(UTC) (F) (DEG/KT/KT) (MB) (FT/S)  
MOUNT DESERT ROC 2200 36 290/ 17/ 21 1019.3R  
MATINICUS ROCK 2100 37 320/ 19/ 21 1019.5R  
ISLE OF SHOALS 2100 37 320/ 18/ 19 1020.1R  
JEFFREYS LEDGE 2156 50 N/A 3/ 4  
CASHES LEDGE BUO 2150 39 49 320/ 10/ 14 1020.3R 4/10  
GEORGES BANK BUO 2150 57 1018.9R 9/ 9  

 
   
............KEY...........
 
 
WCI - WIND CHILL  
TC - TEMPERATURE IN CELSIUS  
VSB - VISIBILITY
IN MILES  
HX - HEAT INDEX  
FAIR- INDICATES FEW OR NO CLOUDS BELOW 12,000 FT, WITH NO  
SIGNIFICANT WEATHER AND/OR S TO VISIBILITY.  
 
 
 
CLICK HERE TO GO TO PREVIOUS BULLETINS.

The Nexlab ME Page
The Nexlab NH Page Main Text Page